ACA723 KLGA-CYYZ

Flight info

Callsign ACA723
Flight time 1h 5m
Altitude 32000
Route GAYEL Q818 WOZEE LINNG3
Aircraft A320/M-SDE3FGHIRWY/LB1

Departure

Time 2026-05-05 22:47
Airport LaGuardia Airport (KLGA)

Arrival

Time 2026-05-05 23:52
Airport Toronto Pearson International Airport (CYYZ)
Time Latitude Longitude Altitude Speed Heading
2026-05-05 22:18 40.77327 -73.86715 19 ft 0 kts 277°
2026-05-05 22:35 40.77327 -73.86714 18 ft 0 kts 277°
2026-05-05 22:37 40.77325 -73.86698 19 ft 4 kts 277°
2026-05-05 22:37 40.77323 -73.86669 19 ft 4 kts 295°
2026-05-05 22:38 40.77306 -73.86652 22 ft 4 kts
2026-05-05 22:38 40.77285 -73.86665 19 ft 4 kts 43°
2026-05-05 22:38 40.77276 -73.86676 20 ft 1 kts 43°
2026-05-05 22:41 40.77301 -73.86645 18 ft 10 kts 43°
2026-05-05 22:41 40.77360 -73.86578 17 ft 11 kts 38°
2026-05-05 22:41 40.77420 -73.86559 19 ft 9 kts 333°
2026-05-05 22:41 40.77474 -73.86569 17 ft 7 kts
2026-05-05 22:42 40.77515 -73.86592 17 ft 6 kts 312°
2026-05-05 22:42 40.77537 -73.86634 18 ft 5 kts 302°
2026-05-05 22:42 40.77574 -73.86713 17 ft 12 kts 302°
2026-05-05 22:42 40.77617 -73.86804 17 ft 11 kts 302°
2026-05-05 22:43 40.77656 -73.86885 17 ft 10 kts 302°
2026-05-05 22:43 40.77691 -73.86956 19 ft 9 kts 303°
2026-05-05 22:43 40.77721 -73.87018 18 ft 8 kts 302°
2026-05-05 22:43 40.77776 -73.87133 18 ft 19 kts 302°
2026-05-05 22:44 40.77844 -73.87274 18 ft 17 kts 302°
2026-05-05 22:44 40.77904 -73.87401 18 ft 16 kts 302°
2026-05-05 22:44 40.77959 -73.87516 18 ft 14 kts 302°
2026-05-05 22:44 40.78010 -73.87624 18 ft 13 kts 302°
2026-05-05 22:45 40.78057 -73.87722 18 ft 12 kts 302°
2026-05-05 22:45 40.78100 -73.87814 17 ft 11 kts 302°
2026-05-05 22:45 40.78160 -73.87863 10 ft 10 kts 349°
2026-05-05 22:45 40.78200 -73.87859 14 ft 8 kts 15°
2026-05-05 22:46 40.78210 -73.87811 14 ft 0 kts 124°
2026-05-05 22:46 40.78203 -73.87797 14 ft 10 kts 123°
2026-05-05 22:46 40.78027 -73.87430 17 ft 85 kts 122°
2026-05-05 22:47 40.77762 -73.86874 18 ft 126 kts 122°
2026-05-05 22:47 40.77054 -73.85384 468 ft 153 kts 125°
2026-05-05 22:47 40.76569 -73.84099 1016 ft 165 kts 106°
2026-05-05 22:47 40.76907 -73.82578 1576 ft 188 kts 50°
2026-05-05 22:48 40.77907 -73.81388 1976 ft 202 kts 37°
2026-05-05 22:48 40.79064 -73.80170 2197 ft 227 kts 37°
2026-05-05 22:48 40.80381 -73.78845 2488 ft 248 kts 27°
2026-05-05 22:48 40.82037 -73.78177 2897 ft 257 kts 356°
2026-05-05 22:49 40.83821 -73.78568 3362 ft 265 kts 330°
2026-05-05 22:49 40.85417 -73.79807 4057 ft 268 kts 317°
2026-05-05 22:49 40.86923 -73.81281 4954 ft 270 kts 315°
2026-05-05 22:49 40.88416 -73.82810 5889 ft 273 kts 314°
2026-05-05 22:50 40.89915 -73.84362 6789 ft 276 kts 315°
2026-05-05 22:50 40.91434 -73.85924 7714 ft 277 kts 315°
2026-05-05 22:50 40.92963 -73.87479 8655 ft 278 kts 316°
2026-05-05 22:50 40.94484 -73.89012 9613 ft 278 kts 316°
2026-05-05 22:51 40.96039 -73.90575 10351 ft 287 kts 316°
2026-05-05 22:51 40.97683 -73.92236 10556 ft 309 kts 316°
2026-05-05 22:51 40.99417 -73.93987 11089 ft 319 kts 317°
2026-05-05 22:51 41.01194 -73.95773 11843 ft 323 kts 317°
2026-05-05 22:52 41.02998 -73.97578 12651 ft 325 kts 317°
2026-05-05 22:52 41.04808 -73.99386 13451 ft 327 kts 317°
2026-05-05 22:52 41.06634 -74.01212 14175 ft 329 kts 317°
2026-05-05 22:52 41.08469 -74.03055 14844 ft 333 kts 317°
2026-05-05 22:53 41.10321 -74.04924 15467 ft 337 kts 317°
2026-05-05 22:53 41.12196 -74.06822 16064 ft 342 kts 317°
2026-05-05 22:53 41.14100 -74.08753 16664 ft 347 kts 317°
2026-05-05 22:53 41.16031 -74.10711 17246 ft 352 kts 317°
2026-05-05 22:54 41.17993 -74.12693 17820 ft 357 kts 318°
2026-05-05 22:54 41.19960 -74.14681 18349 ft 362 kts 317°
2026-05-05 22:54 41.21971 -74.16720 18874 ft 366 kts 318°
2026-05-05 22:54 41.24006 -74.18781 19421 ft 369 kts 318°
2026-05-05 22:55 41.26056 -74.20859 19972 ft 372 kts 318°
2026-05-05 22:55 41.28122 -74.22955 20504 ft 375 kts 318°
2026-05-05 22:55 41.30205 -74.25071 21060 ft 378 kts 318°
2026-05-05 22:55 41.32307 -74.27204 21618 ft 382 kts 318°
2026-05-05 22:56 41.34424 -74.29357 22198 ft 384 kts 318°
2026-05-05 22:56 41.36555 -74.31529 22723 ft 388 kts 318°
2026-05-05 22:56 41.38703 -74.33728 23240 ft 390 kts 316°
2026-05-05 22:56 41.40637 -74.36240 23689 ft 389 kts 306°
2026-05-05 22:57 41.42188 -74.39177 24073 ft 388 kts 296°
2026-05-05 22:57 41.43538 -74.42301 24510 ft 390 kts 296°
2026-05-05 22:57 41.44891 -74.45435 24958 ft 391 kts 296°
2026-05-05 22:57 41.46247 -74.48576 25401 ft 392 kts 296°
2026-05-05 22:58 41.47606 -74.51726 25845 ft 393 kts 296°
2026-05-05 22:58 41.48970 -74.54885 26270 ft 393 kts 296°
2026-05-05 22:58 41.50321 -74.58007 26686 ft 394 kts 296°
2026-05-05 22:58 41.51709 -74.61220 27102 ft 395 kts 296°
2026-05-05 22:59 41.53061 -74.64358 27513 ft 396 kts 296°
2026-05-05 22:59 41.54435 -74.67551 27944 ft 397 kts 296°
2026-05-05 22:59 41.55810 -74.70749 28339 ft 398 kts 296°
2026-05-05 22:59 41.57188 -74.73962 28743 ft 399 kts 296°
2026-05-05 23:00 41.59952 -74.80409 29484 ft 401 kts 296°
2026-05-05 23:00 41.61339 -74.83644 29921 ft 400 kts 297°
2026-05-05 23:00 41.62722 -74.86865 30270 ft 400 kts 297°
2026-05-05 23:01 41.63640 -74.89009 30468 ft 401 kts 297°
2026-05-05 23:01 41.65492 -74.93341 30844 ft 402 kts 297°
2026-05-05 23:01 41.66876 -74.96591 31113 ft 403 kts 296°
2026-05-05 23:01 41.68263 -74.99847 31404 ft 402 kts 296°
2026-05-05 23:02 41.69641 -75.03091 31733 ft 401 kts 296°
2026-05-05 23:02 41.71012 -75.06324 31838 ft 394 kts 296°
2026-05-05 23:02 41.73638 -75.12503 31830 ft 375 kts 296°
2026-05-05 23:03 41.75763 -75.17529 31829 ft 373 kts 296°
2026-05-05 23:03 41.78722 -75.24568 31831 ft 372 kts 296°
2026-05-05 23:04 41.80837 -75.29596 31828 ft 372 kts 296°
2026-05-05 23:04 41.83808 -75.36656 31823 ft 372 kts 296°
2026-05-05 23:05 41.86347 -75.42695 31846 ft 372 kts 296°
2026-05-05 23:05 41.88873 -75.48717 31828 ft 373 kts 295°
2026-05-05 23:06 41.91420 -75.54806 31819 ft 373 kts 295°
2026-05-05 23:06 41.93965 -75.60908 31815 ft 373 kts 295°
2026-05-05 23:07 41.96074 -75.65968 31808 ft 373 kts 295°
2026-05-05 23:07 41.99022 -75.73046 31812 ft 373 kts 295°
2026-05-05 23:08 42.01143 -75.78155 31808 ft 374 kts 295°
2026-05-05 23:08 42.04082 -75.85259 31811 ft 374 kts 295°
2026-05-05 23:09 42.06203 -75.90396 31813 ft 375 kts 295°
2026-05-05 23:09 42.08710 -75.96494 31807 ft 375 kts 295°
2026-05-05 23:10 42.11257 -76.02682 31806 ft 375 kts 295°
2026-05-05 23:10 42.13765 -76.08793 31806 ft 375 kts 295°
2026-05-05 23:11 42.16191 -76.14998 31825 ft 373 kts 289°
2026-05-05 23:11 42.18254 -76.21434 31807 ft 374 kts 289°
2026-05-05 23:12 42.20322 -76.27870 31838 ft 374 kts 289°
2026-05-05 23:12 42.22389 -76.34301 31831 ft 373 kts 289°
2026-05-05 23:13 42.24446 -76.40733 31823 ft 373 kts 289°
2026-05-05 23:13 42.26493 -76.47163 31820 ft 372 kts 289°
2026-05-05 23:14 42.28530 -76.53588 31826 ft 372 kts 288°
2026-05-05 23:14 42.30569 -76.60010 31817 ft 372 kts 288°
2026-05-05 23:15 42.32590 -76.66396 31805 ft 372 kts 288°
2026-05-05 23:15 42.34617 -76.72836 31804 ft 372 kts 288°
2026-05-05 23:16 42.36634 -76.79243 31800 ft 373 kts 289°
2026-05-05 23:16 42.38666 -76.85688 31792 ft 372 kts 288°
2026-05-05 23:17 42.40688 -76.92131 31802 ft 372 kts 288°
2026-05-05 23:17 42.42693 -76.98573 31808 ft 372 kts 288°
2026-05-05 23:18 42.44702 -77.05018 31809 ft 372 kts 288°
2026-05-05 23:18 42.46717 -77.11468 31809 ft 371 kts 288°
2026-05-05 23:19 42.48717 -77.17917 31809 ft 371 kts 288°
2026-05-05 23:19 42.50710 -77.24369 31824 ft 371 kts 288°
2026-05-05 23:20 42.52703 -77.30825 31831 ft 371 kts 287°
2026-05-05 23:20 42.54685 -77.37270 31825 ft 370 kts 287°
2026-05-05 23:21 42.56650 -77.43670 31863 ft 370 kts 287°
2026-05-05 23:21 42.58625 -77.50118 31874 ft 370 kts 287°
2026-05-05 23:22 42.60598 -77.56552 31878 ft 369 kts 287°
2026-05-05 23:22 42.62556 -77.63003 31896 ft 369 kts 287°
2026-05-05 23:23 42.64507 -77.69434 31894 ft 368 kts 287°
2026-05-05 23:23 42.66454 -77.75856 31888 ft 367 kts 286°
2026-05-05 23:24 42.68288 -77.82309 31849 ft 366 kts 285°
2026-05-05 23:24 42.70066 -77.88786 31844 ft 365 kts 285°
2026-05-05 23:25 42.71846 -77.95259 31843 ft 365 kts 285°
2026-05-05 23:25 42.73644 -78.01713 31849 ft 365 kts 285°
2026-05-05 23:26 42.75436 -78.08168 31848 ft 364 kts 285°
2026-05-05 23:26 42.77219 -78.14617 31845 ft 364 kts 285°
2026-05-05 23:27 42.78113 -78.17854 31741 ft 368 kts 285°
2026-05-05 23:27 42.79015 -78.21126 31107 ft 369 kts 285°
2026-05-05 23:27 42.79898 -78.24336 30676 ft 364 kts 284°
2026-05-05 23:27 42.80779 -78.27543 30244 ft 360 kts 284°
2026-05-05 23:28 42.81651 -78.30715 29792 ft 356 kts 284°
2026-05-05 23:28 42.82508 -78.33847 29337 ft 350 kts 284°
2026-05-05 23:28 42.83352 -78.36932 28932 ft 345 kts 284°
2026-05-05 23:28 42.84183 -78.39963 28582 ft 340 kts 283°
2026-05-05 23:29 42.85008 -78.42971 28155 ft 336 kts 283°
2026-05-05 23:29 42.85817 -78.45932 27774 ft 331 kts 283°
2026-05-05 23:29 42.86614 -78.48858 27402 ft 326 kts 283°
2026-05-05 23:29 42.87399 -78.51734 27035 ft 321 kts 283°
2026-05-05 23:30 42.88174 -78.54568 26672 ft 316 kts 283°
2026-05-05 23:30 42.88936 -78.57366 26322 ft 311 kts 282°
2026-05-05 23:30 42.89674 -78.60083 25967 ft 307 kts 282°
2026-05-05 23:30 42.90407 -78.62794 25615 ft 305 kts 282°
2026-05-05 23:31 42.91138 -78.65505 25266 ft 304 kts 282°
2026-05-05 23:31 42.91856 -78.68172 24905 ft 303 kts 282°
2026-05-05 23:31 42.92578 -78.70866 24537 ft 301 kts 282°
2026-05-05 23:31 42.93394 -78.73505 24135 ft 306 kts 290°
2026-05-05 23:32 42.94616 -78.75943 23665 ft 317 kts 300°
2026-05-05 23:32 42.96026 -78.78264 23163 ft 318 kts 300°
2026-05-05 23:32 42.97432 -78.80584 22675 ft 317 kts 300°
2026-05-05 23:32 42.98833 -78.82899 22204 ft 316 kts 300°
2026-05-05 23:33 43.00229 -78.85208 21745 ft 315 kts 299°
2026-05-05 23:33 43.01619 -78.87510 21289 ft 314 kts 299°
2026-05-05 23:33 43.03012 -78.89820 20827 ft 314 kts 299°
2026-05-05 23:33 43.04400 -78.92124 20376 ft 314 kts 299°
2026-05-05 23:34 43.05794 -78.94446 19922 ft 314 kts 299°
2026-05-05 23:34 43.07156 -78.96716 19481 ft 314 kts 299°
2026-05-05 23:34 43.08542 -78.99028 19034 ft 314 kts 299°
2026-05-05 23:34 43.09930 -79.01354 18597 ft 315 kts 299°
2026-05-05 23:35 43.11316 -79.03679 18156 ft 316 kts 298°
2026-05-05 23:35 43.12699 -79.05989 17824 ft 312 kts 298°
2026-05-05 23:35 43.14075 -79.08279 17379 ft 310 kts 298°
2026-05-05 23:35 43.15436 -79.10542 16967 ft 308 kts 298°
2026-05-05 23:36 43.16793 -79.12807 16544 ft 307 kts 298°
2026-05-05 23:36 43.18144 -79.15066 16134 ft 305 kts 298°
2026-05-05 23:36 43.19483 -79.17315 15724 ft 304 kts 298°
2026-05-05 23:36 43.20818 -79.19560 15315 ft 303 kts 298°
2026-05-05 23:37 43.22146 -79.21793 14910 ft 302 kts 299°
2026-05-05 23:37 43.23472 -79.24018 14507 ft 301 kts 299°
2026-05-05 23:37 43.24793 -79.26238 14104 ft 300 kts 299°
2026-05-05 23:37 43.26109 -79.28458 13706 ft 299 kts 299°
2026-05-05 23:38 43.27409 -79.30645 13502 ft 291 kts 299°
2026-05-05 23:38 43.28672 -79.32752 13264 ft 284 kts 299°
2026-05-05 23:38 43.29984 -79.34791 12914 ft 288 kts 307°
2026-05-05 23:38 43.31624 -79.36358 12342 ft 298 kts 323°
2026-05-05 23:39 43.33513 -79.37577 11693 ft 297 kts 324°
2026-05-05 23:39 43.35358 -79.38741 11268 ft 287 kts 324°
2026-05-05 23:39 43.37145 -79.39865 10872 ft 280 kts 324°
2026-05-05 23:39 43.38913 -79.40994 10482 ft 280 kts 323°
2026-05-05 23:40 43.40676 -79.42131 10083 ft 281 kts 323°
2026-05-05 23:40 43.42458 -79.43286 9677 ft 282 kts 323°
2026-05-05 23:40 43.44234 -79.44436 9229 ft 283 kts 324°
2026-05-05 23:40 43.46014 -79.45587 8805 ft 282 kts 324°
2026-05-05 23:41 43.47779 -79.46723 8429 ft 279 kts 324°
2026-05-05 23:41 43.49502 -79.47825 8336 ft 265 kts 324°
2026-05-05 23:41 43.51136 -79.48866 8246 ft 254 kts 324°
2026-05-05 23:41 43.52726 -79.49890 8140 ft 251 kts 323°
2026-05-05 23:42 43.54303 -79.50910 8023 ft 250 kts 323°
2026-05-05 23:42 43.55878 -79.51930 8034 ft 249 kts 324°
2026-05-05 23:42 43.57456 -79.52948 7839 ft 253 kts 327°
2026-05-05 23:42 43.59185 -79.53449 7585 ft 265 kts 356°
2026-05-05 23:43 43.60906 -79.52546 7385 ft 275 kts 33°
2026-05-05 23:43 43.62271 -79.50724 7223 ft 271 kts 41°
2026-05-05 23:43 43.63568 -79.48826 7067 ft 268 kts 42°
2026-05-05 23:43 43.64827 -79.46954 6899 ft 265 kts 42°
2026-05-05 23:44 43.66077 -79.45095 6747 ft 263 kts 41°
2026-05-05 23:44 43.67319 -79.43258 6587 ft 261 kts 41°
2026-05-05 23:44 43.68565 -79.41425 6422 ft 264 kts 41°
2026-05-05 23:44 43.69832 -79.39570 6260 ft 266 kts 41°
2026-05-05 23:45 43.71097 -79.37722 6007 ft 264 kts 41°
2026-05-05 23:45 43.72349 -79.35889 5750 ft 260 kts 41°
2026-05-05 23:45 43.73580 -79.34083 5511 ft 256 kts 43°
2026-05-05 23:45 43.74778 -79.32344 5261 ft 250 kts 39°
2026-05-05 23:46 43.76212 -79.31204 5000 ft 235 kts
2026-05-05 23:46 43.77765 -79.31280 4741 ft 218 kts 335°
2026-05-05 23:46 43.79055 -79.32298 4488 ft 211 kts 320°
2026-05-05 23:46 43.79948 -79.33820 4223 ft 203 kts 292°
2026-05-05 23:47 43.80339 -79.35670 3962 ft 200 kts 278°
2026-05-05 23:47 43.80427 -79.37581 3700 ft 199 kts 267°
2026-05-05 23:47 43.80261 -79.39489 3464 ft 200 kts 261°
2026-05-05 23:47 43.80004 -79.41379 3282 ft 200 kts 252°
2026-05-05 23:48 43.79344 -79.43028 3184 ft 196 kts 228°
2026-05-05 23:48 43.78420 -79.44384 3125 ft 193 kts 227°
2026-05-05 23:48 43.77495 -79.45733 3029 ft 192 kts 227°
2026-05-05 23:48 43.76589 -79.47057 2976 ft 183 kts 227°
2026-05-05 23:49 43.75744 -79.48292 2810 ft 175 kts 227°
2026-05-05 23:49 43.74915 -79.49503 2606 ft 172 kts 227°
2026-05-05 23:49 43.74093 -79.50703 2380 ft 171 kts 228°
2026-05-05 23:49 43.73304 -79.51853 2171 ft 156 kts 229°
2026-05-05 23:50 43.72592 -79.52892 1953 ft 144 kts 228°
2026-05-05 23:50 43.71922 -79.53870 1759 ft 140 kts 228°
2026-05-05 23:50 43.71250 -79.54842 1544 ft 140 kts 228°
2026-05-05 23:50 43.70588 -79.55828 1352 ft 139 kts 230°
2026-05-05 23:51 43.69916 -79.56794 1199 ft 140 kts 229°
2026-05-05 23:51 43.69253 -79.57799 1018 ft 142 kts 228°
2026-05-05 23:51 43.68564 -79.58773 816 ft 141 kts 228°
2026-05-05 23:51 43.68112 -79.59416 676 ft 141 kts 230°
2026-05-05 23:52 43.67269 -79.60654 561 ft 107 kts 225°
2026-05-05 23:52 43.66980 -79.61070 566 ft 74 kts 226°
2026-05-05 23:52 43.66663 -79.61531 565 ft 36 kts 226°
2026-05-05 23:52 43.66579 -79.61687 561 ft 25 kts 245°
2026-05-05 23:53 43.66539 -79.61877 559 ft 10 kts 268°
2026-05-05 23:53 43.66564 -79.61935 559 ft 11 kts 323°
2026-05-05 23:53 43.66642 -79.61893 563 ft 9 kts 49°
2026-05-05 23:53 43.66682 -79.61830 563 ft 8 kts 47°
2026-05-05 23:54 43.66724 -79.61770 567 ft 11 kts 46°
2026-05-05 23:54 43.66788 -79.61677 561 ft 16 kts 47°
2026-05-05 23:54 43.66876 -79.61549 563 ft 20 kts 45°
2026-05-05 23:54 43.66970 -79.61410 567 ft 20 kts 46°
2026-05-05 23:55 43.67068 -79.61269 563 ft 20 kts 46°
2026-05-05 23:55 43.67174 -79.61116 566 ft 24 kts 46°
2026-05-05 23:55 43.67293 -79.60945 561 ft 19 kts 47°
2026-05-05 23:55 43.67389 -79.60803 563 ft 15 kts 40°
2026-05-05 23:56 43.67468 -79.60851 562 ft 13 kts 315°
2026-05-05 23:56 43.67516 -79.60905 564 ft 14 kts 337°
2026-05-05 23:56 43.67594 -79.60840 568 ft 14 kts 49°
2026-05-05 23:56 43.67688 -79.60777 568 ft 12 kts 334°
2026-05-05 23:57 43.67768 -79.60877 561 ft 18 kts 316°
2026-05-05 23:57 43.67863 -79.60976 566 ft 15 kts 352°
2026-05-05 23:57 43.67928 -79.60974 563 ft 8 kts 340°
2026-05-05 23:57 43.67956 -79.61005 566 ft 8 kts 313°
2026-05-05 23:58 43.67972 -79.61060 570 ft 2 kts 285°
2026-05-05 23:58 43.67975 -79.61074 561 ft 1 kts 285°